Lapse_Rate
4.9 4.8 4.3 4.5 4.5 4.8 5.0 5.2 5.3 5.5 5.5 5.5 5.6 5.5 5.7 5.4 5.2 5.6 5.7 3.8 3.2 4.1 5.1 5.4 5.3 5.1 5.2 5.2 5.5 6.1 6.3 6.8 7.2 7.3 6.9 6.1 5.5 5.1 5.0 5.0 5.4 5.6 6.7
4.4 4.5 4.4 4.7 4.8 4.8 4.9 5.3 5.4 5.8 6.1 5.8 6.3 5.7 5.8 5.7 5.6 5.3 5.9 5.8 2.5 2.8 3.3 3.8 4.1 4.3 4.5 4.6 4.7 5.0 5.6 6.3 6.8 7.1 7.1 6.7 6.0 5.4 4.8 4.5 4.7 5.0 5.3
3.7 4.4 5.1 5.3 4.7 4.4 4.4 4.9 5.4 6.0 6.7 6.5 6.8 6.4 6.2 6.0 5.9 5.5 5.6 5.4 5.3 3.5 2.7 3.2 3.5 3.8 4.1 4.2 4.3 4.6 4.9 5.5 6.2 6.7 6.8 6.8 6.6 6.1 5.3 4.8 4.7 4.6 4.9
4.4 4.2 3.3 4.1 3.4 3.0 3.5 5.3 5.6 6.6 6.9 6.8 6.8 7.2 6.6 6.4 5.6 5.5 5.8 5.8 5.7 5.7 5.3 3.6 3.4 3.7 3.8 4.4 4.7 4.7 5.0 5.2 5.7 6.2 6.7 6.9 6.5 6.4 6.0 5.5 5.0 4.8 4.9
3.2 2.8 2.4 3.2 3.6 4.2 4.8 5.7 6.5 6.2 6.9 6.9 7.2 7.6 7.0 7.3 5.9 5.9 6.0 6.2 6.0 6.1 6.1 5.5 4.6 4.7 4.1 4.3 4.6 5.2 5.4 5.7 5.7 5.6 6.3 7.3 7.3 6.8 6.6 6.3 5.7 5.3 5.0
3.0 3.8 3.5 3.9 5.1 5.7 5.8 6.0 6.2 6.9 6.9 6.5 7.0 8.1 7.3 7.5 6.5 6.6 6.7 6.6 6.5 6.4 6.3 6.0 5.8 5.9 4.6 4.3 4.3 4.7 5.3 6.1 5.9 5.4 5.2 5.4 6.3 7.6 7.0 7.0 6.5 6.0 5.7
3.3 3.9 5.2 5.8 5.5 6.1 5.5 5.8 6.4 6.4 7.2 6.4 8.4 9.1 8.8 7.2 7.4 7.5 7.8 7.4 7.9 7.2 7.3 7.0 7.3 7.0 6.4 4.9 4.5 4.3 4.7 5.3 5.4 5.5 5.3 5.1 5.3 5.7 6.2 7.1 6.8 6.5 6.0
4.2 5.1 5.5 5.5 5.5 6.6 6.2 6.1 5.9 6.6 6.8 6.4 7.2 8.9 8.3 8.9 9.2 8.7 8.4 8.8 8.8 8.0 9.0 8.4 7.7 7.2 7.3 7.2 6.4 5.1 5.2 5.3 4.6 4.7 5.2 5.3 5.4 5.6 6.2 6.9 7.0 6.8 6.3
4.5 4.8 5.0 5.7 6.0 6.3 6.7 6.4 6.3 6.4 7.3 8.1 7.3 8.9 8.3 7.9 8.9 9.5 9.6 9.8 9.8 9.9 9.6 9.6 9.5 9.5 9.1 8.8 7.9 7.7 6.4 5.3 5.2 5.2 5.5 5.8 5.6 5.9 6.5 7.0 7.2 7.1 7.0
4.5 5.3 5.7 5.8 5.9 6.3 6.6 6.8 6.8 6.8 7.3 8.8 9.2 9.6 9.5 9.3 8.6 8.3 9.4 9.6 9.9 9.9 9.9 9.7 9.5 9.2 9.2 9.0 8.4 7.7 6.4 6.3 6.0 6.3 6.4 6.4 6.2 6.2 6.2 6.9 7.6 7.5 7.3
5.5 5.8 5.9 5.7 6.2 6.5 6.4 6.8 7.5 7.9 8.2 8.5 9.3 9.4 9.4 9.4 9.3 8.7 8.4 9.0 9.7 10.0 10.0 9.9 9.5 9.4 8.7 9.0 8.5 8.4 6.6 6.5 6.4 6.8 7.1 6.9 7.0 6.3 6.1 6.2 7.8 7.8 7.6
7.1 6.4 5.9 5.8 6.0 6.3 6.6 7.3 7.4 8.0 8.6 8.8 9.5 9.5 9.4 9.1 9.0 8.8 8.7 8.9 9.0 9.5 10.0 10.0 9.8 9.5 9.2 8.9 8.6 7.6 7.3 6.8 6.6 6.7 7.0 7.2 6.9 6.7 6.2 6.0 5.6 7.6 8.2
7.8 6.9 5.9 6.1 6.5 6.6 7.0 7.5 7.9 8.6 8.8 9.0 9.1 9.3 9.2 9.4 9.3 9.4 9.1 8.9 8.6 9.4 9.6 10.1 9.9 9.7 9.6 9.3 9.5 8.5 8.3 7.0 6.8 6.8 6.7 6.9 6.9 6.7 6.4 5.9 5.3 5.2 6.3
7.0 6.1 6.1 6.5 6.9 7.1 7.5 7.7 8.0 8.6 8.5 8.8 8.8 9.0 9.0 9.5 8.8 8.7 8.9 8.7 8.4 8.8 9.3 9.3 10.1 9.7 9.6 9.6 9.5 8.4 9.3 7.8 7.4 7.4 6.7 6.7 6.9 6.7 6.7 6.5 5.8 4.7 4.7
6.3 6.5 6.8 7.2 7.5 7.5 7.6 8.0 8.3 8.8 8.9 9.0 9.0 8.8 8.7 8.9 8.5 8.4 8.4 9.2 8.6 8.2 8.6 9.3 9.3 9.9 9.7 9.6 9.6 9.4 9.4 8.9 7.4 7.4 7.1 6.8 6.8 7.0 6.5 6.2 6.1 6.0 5.5
7.1 7.5 7.9 7.9 7.6 7.1 7.3 8.2 8.5 9.3 8.6 8.9 8.7 8.4 8.7 8.8 8.6 8.9 9.5 9.5 9.4 8.9 9.0 9.5 9.7 10.0 9.7 9.7 9.6 9.6 9.5 8.7 8.2 7.2 6.8 6.5 6.7 6.8 6.6 6.0 5.6 5.9 5.3
8.4 8.0 7.6 7.9 7.7 7.2 8.2 8.6 8.4 8.7 8.2 8.5 8.1 8.0 8.2 8.5 9.3 9.7 9.8 9.8 9.6 9.5 9.0 9.3 9.9 10.1 10.0 10.0 9.9 9.6 9.6 9.5 9.6 8.3 7.2 6.9 6.4 6.4 6.6 6.2 5.4 5.2 5.0
7.1 6.9 7.4 7.9 8.1 8.6 8.4 8.5 8.7 8.6 8.1 7.9 7.9 7.8 8.2 9.4 9.4 9.7 9.7 9.5 9.5 9.6 9.2 9.0 9.5 9.7 9.6 9.8 9.9 9.9 9.8 9.5 9.6 9.6 7.8 7.2 7.0 6.8 6.5 6.5 5.8 5.5 5.0
7.2 7.2 7.8 8.3 8.0 7.6 8.5 8.4 8.3 7.5 7.1 7.3 7.5 7.8 8.2 9.1 9.4 9.6 9.6 9.5 9.4 9.2 9.1 9.0 9.1 9.7 9.8 10.0 9.7 9.7 9.8 9.9 9.5 9.4 8.1 7.6 7.2 7.0 6.7 6.6 6.4 6.1 5.8
7.2 7.9 8.4 8.4 7.8 7.9 8.4 8.1 7.4 7.0 7.3 7.3 7.2 7.3 7.3 8.3 9.4 9.6 9.4 9.1 9.1 8.9 9.0 8.9 9.1 9.1 9.3 9.6 8.6 9.1 9.2 9.8 9.8 9.8 9.4 8.2 7.1 7.4 6.9 6.3 6.6 6.7 6.6
7.7 7.6 7.4 7.9 8.1 8.2 7.7 7.3 7.2 7.2 7.2 7.2 6.9 6.6 7.1 7.0 7.1 8.6 9.6 9.4 9.1 8.9 8.9 8.7 8.7 8.9 9.0 9.2 9.0 9.4 9.0 9.2 8.9 9.7 9.9 10.0 10.0 9.7 9.6 8.4 7.8 7.1 7.6
8.1 7.9 7.1 7.3 7.3 7.4 5.3 5.4 6.0 7.1 6.7 6.6 6.5 6.6 7.4 7.4 9.4 8.5 7.8 8.1 8.5 8.5 8.5 8.7 8.8 8.4 9.0 8.6 9.3 9.1 8.9 8.6 8.5 9.7 9.5 9.5 9.8 9.9 9.9 9.4 6.4 5.7 6.5
7.8 7.8 7.3 7.0 6.6 6.6 5.1 5.4 5.2 6.5 6.3 6.3 6.4 7.1 8.5 9.8 9.3 9.7 9.5 9.1 8.6 8.9 8.7 8.5 8.6 8.9 8.7 9.3 9.2 9.0 8.8 8.7 8.6 9.0 9.4 9.1 9.7 9.4 9.7 9.1 6.9 6.1 5.9
8.1 7.9 7.0 6.5 6.4 6.0 5.0 5.0 4.9 6.3 6.2 6.2 6.7 7.7 9.6 9.6 9.7 9.4 8.8 9.2 9.2 9.6 9.5 9.1 8.6 9.0 9.3 9.4 9.4 9.2 8.3 8.6 9.3 9.7 9.7 8.3 9.4 9.2 9.7 8.5 6.7 6.1 5.9
8.0 7.3 6.8 6.3 6.3 6.1 4.8 5.2 5.8 6.1 5.8 6.0 6.5 9.2 9.5 9.5 9.1 9.1 9.1 8.9 9.2 9.4 9.3 9.3 8.6 8.4 8.2 8.2 8.6 8.9 8.8 8.2 8.4 9.1 9.5 8.8 9.1 8.9 9.4 9.3 8.4 6.8 6.4
7.3 6.9 6.4 6.2 5.1 5.8 4.6 5.4 6.0 6.6 5.8 6.4 8.1 8.5 7.6 8.1 8.8 9.0 9.2 9.0 8.6 9.0 9.4 9.5 9.6 9.5 9.1 8.7 7.8 8.6 9.4 8.7 8.7 8.3 9.3 8.9 9.1 9.2 8.6 9.2 8.6 8.0 7.6
Wind_Speed
7 8 8 7 7 7 7 8 7 7 8 8 9 9 8 9 11 10 11 13 15 16 16 17 18 18 17 18 18 18 17 16 14 13 12 11 11 11 10 9 11 12 19
7 8 7 6 6 7 6 4 4 4 6 8 8 8 8 8 8 9 10 9 13 15 16 17 19 20 21 20 20 19 18 18 17 16 14 13 13 12 13 10 11 10 12
10 8 6 6 7 6 5 5 7 7 7 8 8 8 9 7 8 6 6 7 8 10 14 18 20 21 22 23 22 22 21 18 18 18 16 15 12 12 12 13 12 10 10
9 8 7 7 6 5 7 7 7 6 6 6 6 8 8 9 6 4 5 6 8 10 11 16 19 20 21 23 24 24 22 23 20 19 19 17 16 13 13 13 14 12 10
8 12 8 8 5 7 7 7 5 5 5 6 7 6 8 6 2 3 5 5 7 10 12 16 21 22 23 23 23 24 24 23 22 22 19 20 17 19 16 15 13 11 11
9 9 9 6 4 6 5 6 5 5 5 6 7 6 8 5 1 3 6 6 8 10 12 15 18 20 22 24 24 22 23 23 21 21 21 21 20 18 20 16 14 12 11
9 9 7 5 6 5 5 6 5 7 6 7 5 7 5 3 3 4 9 8 11 12 15 16 17 20 21 22 21 22 23 21 20 21 20 21 19 19 16 18 14 12 11
7 7 5 5 5 4 6 6 6 5 4 5 6 6 4 5 2 9 9 8 10 13 17 15 20 19 19 19 19 20 18 19 20 21 21 19 20 19 18 14 18 14 12
5 5 5 4 3 3 3 4 4 5 5 5 5 4 4 4 10 6 11 9 13 11 17 20 18 19 17 18 18 18 15 17 18 19 20 19 18 18 18 19 16 18 15
3 2 2 3 2 2 3 3 3 3 4 5 5 3 6 8 7 8 6 9 9 14 14 17 19 18 18 15 16 17 17 18 17 17 17 18 18 17 17 19 20 19 17
3 3 3 1 1 2 1 1 1 3 3 4 4 4 5 6 7 8 12 10 10 9 9 15 15 14 12 14 14 15 19 15 13 15 16 16 16 15 16 20 18 19 19
5 5 3 3 3 4 5 4 4 4 4 4 4 4 6 7 7 8 10 11 12 11 11 11 13 13 12 12 14 16 18 16 14 13 15 17 15 13 14 15 18 11 15
4 5 7 7 8 8 8 5 5 5 5 5 5 5 4 5 5 6 8 10 10 12 12 10 13 17 19 13 15 15 19 15 14 14 13 15 16 15 11 13 15 15 12
6 8 8 9 10 10 6 9 5 5 5 5 6 5 5 4 4 5 6 7 11 12 13 16 12 16 20 18 19 19 20 14 12 12 13 12 15 16 13 11 12 14 16
7 8 9 11 10 7 9 7 4 6 5 6 6 6 5 5 5 5 6 6 8 14 15 15 14 15 19 21 22 24 23 19 14 13 12 12 11 14 14 11 9 8 11
7 9 11 10 8 6 5 5 4 7 6 6 5 6 7 6 6 7 8 8 8 11 15 12 13 15 20 22 24 26 26 20 15 12 14 14 12 11 12 11 9 9 11
13 11 11 9 6 5 5 8 8 7 7 8 6 7 8 9 8 9 9 9 9 10 13 15 13 14 17 16 18 22 23 20 17 9 10 10 13 13 12 11 9 7 9
13 12 10 6 6 8 8 7 6 6 6 6 7 8 11 9 12 12 10 12 11 12 12 19 15 13 14 16 16 15 15 19 19 14 9 10 12 14 15 12 9 5 8
10 10 7 8 7 6 5 2 3 2 3 5 8 10 12 13 14 12 12 12 11 10 11 12 14 12 13 12 13 13 13 14 18 17 14 14 12 13 14 17 11 7 3
10 8 7 7 3 1 1 1 1 2 5 7 9 10 12 12 14 14 12 13 12 10 11 11 13 12 11 11 9 9 9 10 10 14 12 12 14 13 11 13 18 13 7
7 6 2 4 3 1 2 2 3 5 7 9 10 10 10 15 18 15 10 12 13 11 10 11 12 11 11 10 10 10 9 9 10 9 8 7 6 7 8 6 8 17 14
8 6 2 1 2 3 7 7 7 6 8 9 11 11 10 13 12 16 16 17 15 13 14 12 12 12 14 11 10 9 9 7 8 8 7 6 4 6 7 7 8 11 8
4 2 1 2 3 3 6 7 7 5 8 9 10 10 10 8 12 11 14 18 16 17 14 13 14 14 13 11 11 11 11 9 8 8 6 8 6 7 8 9 8 11 9
5 4 3 3 3 2 5 6 7 6 8 9 10 10 11 12 11 13 14 13 12 13 12 9 12 14 13 12 12 11 10 11 10 9 7 7 7 8 6 9 8 10 11
5 3 4 4 2 0 3 5 7 7 8 10 9 10 11 12 14 19 14 13 13 13 15 18 19 21 19 20 18 9 9 8 8 8 7 7 7 6 6 6 8 9 12
4 3 4 3 2 1 1 5 7 6 8 8 10 10 11 12 17 18 13 11 12 12 13 13 12 12 12 12 13 11 9 9 9 6 6 6 7 4 4 4 5 6 9
Wind_Direction
98 102 97 88 78 72 63 56 46 25 14 11 10 4 357 359 355 347 335 357 13 18 16 13 8 7 1 352 342 331 323 301 287 286 286 282 280 282 282 289 288 284 258
114 103 90 84 80 73 63 48 49 20 4 353 347 345 342 350 348 340 333 344 34 32 27 22 16 9 2 360 357 348 333 312 305 283 277 276 279 280 287 285 285 287 282
106 113 111 86 66 49 55 27 15 4 345 339 331 330 332 347 346 350 356 5 7 23 24 18 11 5 359 353 349 347 344 334 313 302 278 271 266 273 276 283 281 282 283
117 95 73 76 67 59 39 17 12 348 341 340 335 331 334 337 349 45 32 15 6 358 353 2 359 355 352 347 341 337 336 335 328 316 298 276 268 260 264 265 275 282 280
94 89 84 67 50 48 37 12 2 346 333 338 328 320 329 326 344 27 20 16 11 358 347 345 346 342 343 339 335 331 327 325 326 324 313 291 269 263 253 257 258 273 285
101 94 78 69 48 47 33 14 351 345 329 344 323 312 310 292 197 9 3 347 350 346 342 337 335 331 331 332 329 326 323 319 319 319 321 313 316 279 258 254 258 258 271
83 81 79 59 46 43 36 11 348 348 346 351 321 325 303 199 253 345 341 331 335 334 336 331 330 328 321 320 320 325 324 318 319 317 317 316 308 304 305 247 241 244 259
91 78 70 65 52 37 27 17 14 347 336 4 339 312 316 286 325 330 326 330 334 325 324 322 322 322 317 314 314 318 328 325 322 315 312 315 313 305 291 283 237 231 240
82 69 71 83 86 54 32 24 11 0 339 344 9 334 315 300 324 308 311 321 326 323 321 317 314 318 313 314 314 314 323 327 327 320 313 311 311 309 296 276 267 233 232
76 44 150 162 126 77 59 22 5 345 332 327 322 311 309 304 306 307 311 316 319 316 319 322 316 319 319 322 316 313 315 319 324 328 323 313 314 308 317 290 259 240 232
241 275 247 228 137 65 62 316 288 297 307 305 302 307 302 300 294 300 308 318 314 316 309 320 327 322 318 322 321 319 325 319 321 329 338 328 311 315 319 338 271 241 230
286 289 276 249 210 215 220 225 228 242 262 267 272 279 299 310 312 311 307 312 312 316 310 304 322 319 319 304 316 331 339 337 326 327 331 342 328 317 330 329 338 298 238
300 291 244 230 228 228 232 258 252 263 264 272 287 299 293 294 295 306 306 307 304 304 306 302 302 298 310 295 301 302 312 326 333 320 326 334 342 335 327 337 337 352 317
299 290 245 240 242 243 258 286 264 271 265 269 279 294 291 289 286 297 302 305 301 298 299 300 303 301 294 285 290 304 292 292 312 325 316 322 331 332 328 329 330 335 335
293 273 253 250 256 251 303 296 291 291 289 288 297 292 283 286 286 290 293 292 295 299 297 303 299 297 296 295 290 296 291 285 293 305 313 307 307 325 322 319 330 328 342
300 284 274 279 272 295 306 282 288 278 273 279 281 279 285 290 293 292 291 287 281 285 291 297 296 301 297 295 292 291 284 278 280 298 308 309 285 294 309 307 316 331 333
314 309 303 291 272 245 250 278 256 263 273 282 275 283 290 294 293 295 293 288 286 285 288 293 294 297 295 292 291 288 279 271 270 273 297 310 326 283 279 288 291 323 337
313 308 301 279 285 292 295 269 266 294 293 283 292 297 297 301 298 299 296 294 290 287 288 291 297 296 296 303 295 288 283 279 278 282 280 297 302 316 279 265 268 299 328
321 314 299 294 293 310 300 299 308 321 303 302 304 302 304 305 302 304 301 296 296 293 290 289 293 296 294 292 288 284 279 269 270 278 269 270 274 292 302 275 247 252 280
327 323 322 313 297 247 25 76 55 329 318 314 313 312 310 307 306 306 303 297 294 294 289 287 289 292 294 299 297 295 285 275 262 265 268 273 283 280 294 318 240 243 202
320 329 347 9 352 97 77 63 354 341 329 322 318 315 313 314 308 307 305 304 306 297 291 288 287 288 289 290 295 292 289 295 283 268 274 282 293 276 259 290 282 236 232
315 316 353 222 149 85 71 46 5 336 328 321 321 320 319 313 314 313 305 300 295 293 288 288 286 284 296 283 289 286 285 280 293 260 266 272 285 293 280 280 337 327 317
311 324 329 170 122 89 43 26 12 333 324 325 323 320 320 319 313 313 305 300 295 293 287 289 289 283 283 294 299 297 284 267 270 282 288 282 285 287 286 275 302 318 319
280 284 190 161 148 77 35 19 0 334 327 325 323 320 319 316 318 316 318 316 315 312 306 296 300 282 277 286 288 286 291 289 272 266 262 269 277 272 280 273 266 276 286
274 234 189 172 183 162 22 4 340 331 327 327 325 324 319 321 321 323 323 321 322 314 317 311 306 299 289 285 282 284 274 273 253 262 247 247 269 269 275 279 269 253 265
273 198 172 179 164 245 3 346 336 320 325 327 324 323 326 327 321 327 327 326 320 329 325 320 313 310 297 289 279 262 263 262 267 288 224 238 255 252 267 246 248 236 229